QPS-SAR-8 (AMATERU-IV)

Last updated on Mon Sep 16 2024 00:02:04 GMT+0000 (Coordinated Universal Time)

1 60542U 24149CC 24258.92833635 .00012815 00000+0 12427-2 0 9991 2 60542 97.7457 333.9441 0004764 66.3231 293.8488 14.92798547 4335
UTC large
Height (km)
Speed (km/s)
/
Latitude / Longitude
Inclination (degrees)
Orbital Period (minutes)
Azimuth
Elevation
Range (km)
Doppler Factor

Next 0 passes for location: London (51.5072 / 0.1276)

Sorry there are no passes over London.